Weather in Stepnoy Dvorets

Russia / Republic of Buryatia     52°10′20″N   106°23′42″E
temp.,
°C
wind,
m/s
gust,
m/s
humid.,
%
clouds,
%
prec.,
mm/h
press.,
hPa
HPBL,
m
8 may, sat
sat823:00+1sw228296 0.0 101520
02:000ese22855 0.0 101428
05:000ene338570 0.0 101345
08:00+3ne4665100 0.0 1013248
11:00+7wnw125185 0.0 1013636
14:00+8wsw55515 0.0 1013837
17:00+7sw78676 0.0 1012504
20:00+4sw611855 0.0 1013289
9 may, sun
sun923:00+3sw6108916 0.0 1014188
02:00+2sw489493 0.1 1014138
05:00+3sw489387 0.0 1014172
08:00+6wsw698390 0.1 1013331
11:00+10wsw456522 0.1 1012830
14:00+13sw454864 0.1 10091191
17:00+13nw1245100 0.0 1007740
20:00+3nw4791100 0.9 1010155
10 may, mon
mon1023:00+4w2491100 1.1 1011228
02:00+4sw3494100 1.1 1011161
05:00+3wsw3494100 0.9 1011133
08:00+6wnw3675100 0.9 1011687
11:00+5w5781100 0.4 1013640
14:00+5sw6776100 0.6 1013636
17:00+5sw5673100 0.3 1013268
20:00+5w51067100 0.3 1013328
11 may, tue
tue1123:00+3wsw6985100 0.0 1014303
02:00+3wsw6882100 0.0 1014256
05:00+2wsw61087100 0.4 1013382
08:00+2wsw5896100 2.9 1014416
11:00+3w2295100 0.2 1015391
14:00+4sw2393100 0.3 1015417
17:00+3wsw3493100 0.0 1015384
20:00+3wsw2396100 0.0 1016156
12 may, wed
wed1223:00+2sw2399100 0.0 1016101
02:00+2ssw2499100 0.0 1015150
05:00+3ssw2399100 0.0 1014116
08:00+3sw3496100 0.1 1015234
11:00+5wsw448898 0.0 1014512
14:00+6wsw238596 0.1 1014488
17:00+8ne117282 0.0 1012786
20:00+5ene238461 0.0 101376